Weather History for Greenwood, SC

Change the Weather History Date:

Wednesday, December 28, 2011

  Actual Average (KAND) Record (KAND)
Temperature  
Mean Temperature 44 °F -  
Max Temperature 52 °F 53 °F 72 °F (1971)
Min Temperature 36 °F 36 °F 17 °F (2010)
Degree Days  
Heating Degree Days 21    
Moisture  
Dew Point 30 °F    
Average Humidity 62    
Maximum Humidity 83    
Minimum Humidity 38    
Precipitation  
Precipitation 0.00 in - - ()
Sea Level Pressure  
Sea Level Pressure 30.04 in    
Wind  
Wind Speed 8 mph (WSW)    
Max Wind Speed 12 mph    
Max Gust Speed 17 mph    
Visibility 10 miles    
Events      
Averages and records for this station are not official NWS values.
T = Trace of Precipitation, MM = Missing Value Source: NWS Daily Summary

Daily Weather History Graph

Daily Weather History Graph

Search for Another Location

Airport:

Trip Planner

Search our weather history database for the weather conditions in past years. The results will help you decide how hot, cold, wet, or windy it might be!

Date:

Astronomy

Dec. 28, 2011 Rise Set
Actual Time 7:33 AM EST 5:26 PM EST
Civil Twilight 7:05 AM EST 5:54 PM EST
Nautical Twilight 6:34 AM EST 6:25 PM EST
Astronomical Twilight 6:03 AM EST 6:56 PM EST
Moon 10:09 AM EST (12/28) 9:49 PM EST (12/28)
Length of Visible Light 10h 48m
Length of Day
9h 53m
Waxing Crescent, 18% of the Moon is Illuminated
Dec 28
Waxing Crescent
Jan 1
First Quarter
Jan 9
Full
Jan 16
Last Quarter
Jan 23
New

Hourly Weather History & Observations

Time (EST) Temp. Windchill Dew Point Humidity Pressure Visibility Wind Dir Wind Speed Gust Speed Precip Events Conditions
12:56 AM 41.0 °F 34.3 °F 33.1 °F 73% 29.91 in 10.0 mi West 11.5 mph 17.3 mph N/A   Clear
1:56 AM 39.9 °F 32.9 °F 33.1 °F 77% 29.94 in 10.0 mi West 11.5 mph - N/A   Partly Cloudy
2:56 AM 39.0 °F 32.8 °F 33.1 °F 79% 29.95 in 10.0 mi WSW 9.2 mph - N/A   Clear
3:56 AM 37.9 °F 32.1 °F 33.1 °F 83% 29.96 in 10.0 mi WSW 8.1 mph - N/A   Clear
4:56 AM 37.9 °F 32.1 °F 32.0 °F 79% 29.97 in 10.0 mi West 8.1 mph - N/A   Clear
5:56 AM 37.0 °F 31.0 °F 30.9 °F 79% 29.99 in 10.0 mi West 8.1 mph - N/A   Clear
6:56 AM 36.0 °F 30.3 °F 28.9 °F 76% 30.00 in 10.0 mi West 6.9 mph - N/A   Clear
7:56 AM 36.0 °F 29.6 °F 28.0 °F 73% 30.02 in 10.0 mi WSW 8.1 mph - N/A   Clear
8:56 AM 39.0 °F 33.4 °F 30.0 °F 70% 30.05 in 10.0 mi West 8.1 mph - N/A   Clear
9:56 AM 42.1 °F 38.4 °F 30.0 °F 62% 30.08 in 10.0 mi WSW 5.8 mph - N/A   Clear
10:56 AM 46.0 °F 41.9 °F 28.9 °F 51% 30.10 in 10.0 mi WNW 8.1 mph - N/A   Clear
11:56 AM 48.0 °F - 30.0 °F 50% 30.07 in 10.0 mi WSW 6.9 mph - N/A   Clear
12:56 PM 48.9 °F - 28.9 °F 46% 30.05 in 10.0 mi Variable 3.5 mph - N/A   Clear
1:56 PM 51.1 °F - 28.0 °F 41% 30.03 in 10.0 mi WSW 8.1 mph - N/A   Clear
2:56 PM 52.0 °F - 27.0 °F 38% 30.03 in 10.0 mi WSW 11.5 mph - N/A   Clear
3:56 PM 52.0 °F - 27.0 °F 38% 30.04 in 10.0 mi West 6.9 mph - N/A   Clear
4:56 PM 50.0 °F - 28.0 °F 43% 30.06 in 10.0 mi WSW 3.5 mph - N/A   Clear
5:56 PM 46.0 °F 43.9 °F 28.0 °F 50% 30.08 in 10.0 mi WSW 4.6 mph - N/A   Clear
6:56 PM 42.1 °F 40.2 °F 28.9 °F 60% 30.09 in 10.0 mi SW 3.5 mph - N/A   Clear
7:56 PM 43.0 °F - 28.9 °F 58% 30.10 in 10.0 mi Calm Calm - N/A   Clear
8:56 PM 39.9 °F 36.7 °F 28.9 °F 65% 30.10 in 10.0 mi SSW 4.6 mph - N/A   Clear
9:56 PM 39.9 °F 36.7 °F 28.0 °F 63% 30.11 in 10.0 mi WSW 4.6 mph - N/A   Clear
10:56 PM 39.9 °F 35.1 °F 28.0 °F 63% 30.11 in 10.0 mi WSW 6.9 mph - N/A   Clear
11:56 PM 37.9 °F 32.7 °F 28.0 °F 68% 30.09 in 10.0 mi WSW 6.9 mph - N/A   Clear